This is the latest recevied weather packets stored in our database for station/object WD4ITN. If no packets are shown the sender has not sent any weather packets the latest 10 day(s).
| Time | Temp. | Humidity | Pressure | Rain* | Wind** | Luminosity | Snow |
|---|---|---|---|---|---|---|---|
| 1777931596 | 18.89° C | 52% | 1010.5 hPa | 0 mm | - | - | - |
| 1777931294 | 19.44° C | 53% | 1010.5 hPa | 0 mm | - | - | - |
| 1777931019 | 19.44° C | 53% | 1010.6 hPa | 0 mm | - | - | - |
| 1777930713 | 19.44° C | 53% | 1010.6 hPa | 0 mm | - | - | - |
| 1777930411 | 19.44° C | 54% | 1010.6 hPa | 0 mm | - | - | - |
| 1777930106 | 19.44° C | 55% | 1010.5 hPa | 0 mm | - | - | - |
| 1777929804 | 18.89° C | 55% | 1010.5 hPa | 0 mm | - | - | - |
| 1777929504 | 18.89° C | 52% | 1010.4 hPa | 0 mm | - | - | - |
| 1777929199 | 18.89° C | 52% | 1010.5 hPa | 0 mm | - | - | - |
| 1777928897 | 18.89° C | 52% | 1009.5 hPa | 0 mm | - | - | - |
| 1777928619 | 18.89° C | 53% | 1009.6 hPa | 0 mm | - | - | - |
| 1777928307 | 18.89° C | 53% | 1009.7 hPa | 0 mm | - | - | - |
| 1777928004 | 18.33° C | 54% | 1009.7 hPa | 0 mm | - | - | - |
| 1777927704 | 18.89° C | 53% | 1009.7 hPa | 0 mm | - | - | - |
| 1777927398 | 18.89° C | 53% | 1009.5 hPa | 0 mm | - | - | - |
| 1777927098 | 18.89° C | 51% | 1009.6 hPa | 0 mm | - | - | - |
| 1777926820 | 18.89° C | 53% | 1009.5 hPa | 0 mm | - | - | - |
| 1777926511 | 18.89° C | 54% | 1009.6 hPa | 0 mm | - | - | - |
| 1777926212 | 18.89° C | 53% | 1009.6 hPa | 0 mm | - | - | - |
| 1777925915 | 18.89° C | 51% | 1009.5 hPa | 0 mm | - | - | - |
| 1777925610 | 19.44° C | 51% | 1009.5 hPa | 0 mm | - | - | - |
| 1777925310 | 20° C | 50% | 1009.5 hPa | 0 mm | - | - | - |
| 1777924999 | 19.44° C | 53% | 1009.7 hPa | 0 mm | - | - | - |
| 1777924700 | 19.44° C | 53% | 1009.7 hPa | 0 mm | - | - | - |
| 1777924404 | 19.44° C | 52% | 1009.8 hPa | 0 mm | - | - | - |
* Rain since midnight (hover to see other rain measurements)
** Current wind speed in m/s (hover to see current wind gust speed)